DW1114 Weather Reports


Display with metric or nautical units.
time (UTC)temp
F
wind
direction
speed
MPH
gust
MPH
rain 1hr
in
rain 24hr
in
rain mn
in
humidity
%
barometer
mb
20260906163403 74 57 5.0 14.0 0.00 0.00 0.00 1017.0
20260906162903 73 73 4.0 10.0 0.00 0.00 0.00 1016.6
20260906162402 73 56 4.0 13.0 0.00 0.00 0.00 1016.3
20260906161903 73 97 4.0 13.0 0.00 0.00 0.00 1016.6
20260906161424 73 11 3.0 12.0 0.00 0.00 0.00 1017.0
20260906160903 73 43 3.0 12.0 0.00 0.00 0.00 1016.3
20260906160445 72 88 5.0 10.0 0.00 0.00 0.00 1016.6
20260906155924 72 83 6.0 10.0 0.00 0.00 0.00 1016.3
20260906155403 73 48 4.0 9.0 0.00 0.00 0.00 1016.6
20260906154903 72 56 4.0 14.0 0.00 0.00 0.00 1017.0
20260906154423 72 57 4.0 14.0 0.00 0.00 0.00 1016.6
20260906152903 72 59 3.0 13.0 0.00 0.00 0.00 1016.3
20260906152403 72 49 3.0 7.0 0.00 0.00 0.00 1016.3
20260906151903 71 90 3.0 9.0 0.00 0.00 0.00 1016.0
20260906151403 71 70 3.0 9.0 0.00 0.00 0.00 1016.0
20260906150903 71 101 3.0 10.0 0.00 0.00 0.00 1015.6
20260906150404 71 64 2.0 10.0 0.00 0.00 0.00 1016.3
20260906145902 71 81 6.0 11.0 0.00 0.00 0.00 1016.3
20260906145403 71 23 4.0 13.0 0.00 0.00 0.00 1017.0
20260906144903 70 45 4.0 13.0 0.00 0.00 0.00 1016.3
20260906144403 70 66 4.0 11.0 0.00 0.00 0.00 1016.6
20260906143904 70 70 6.0 11.0 0.00 0.00 0.00 1016.6
20260906143403 70 74 5.0 11.0 0.00 0.00 0.00 1016.6
20260906142903 70 35 4.0 13.0 0.00 0.00 0.00 1016.3
20260906142403 70 42 6.0 13.0 0.00 0.00 0.00 1016.3
20260906141903 69 85 5.0 11.0 0.00 0.00 0.00 1016.0
20260906141424 69 66 5.0 11.0 0.00 0.00 0.00 1016.3
20260906140903 69 89 4.0 9.0 0.00 0.00 0.00 1016.0
20260906140403 69 91 4.0 9.0 0.00 0.00 0.00 1016.0
20260906135903 69 90 3.0 9.0 0.00 0.00 0.00 1016.0
20260906135403 69 92 3.0 10.0 0.00 0.00 0.00 1016.3
20260906134903 69 63 3.0 10.0 0.00 0.00 0.00 1016.0
20260906134426 69 37 3.0 7.0 0.00 0.00 0.00 1016.3
20260906133925 68 38 3.0 7.0 0.00 0.00 0.00 1016.0
20260906133423 68 83 2.0 7.0 0.00 0.00 0.00 1016.0
20260906132903 68 31 3.0 8.0 0.00 0.00 0.00 1015.6
20260906132402 68 51 2.0 9.0 0.00 0.00 0.00 1016.0
20260906131903 67 71 4.0 9.0 0.00 0.00 0.00 1016.0
20260906131403 67 72 4.0 9.0 0.00 0.00 0.00 1015.6
20260906130903 67 81 4.0 9.0 0.00 0.00 0.00 1016.0
20260906130403 67 58 4.0 10.0 0.00 0.00 0.00 1016.0
20260906125902 67 62 4.0 10.0 0.00 0.00 0.00 1016.0
20260906125403 67 70 4.0 7.0 0.00 0.00 0.00 1016.0
20260906124902 66 34 3.0 7.0 0.00 0.00 0.00 1015.6
20260906124403 66 80 3.0 5.0 0.00 0.00 0.00 1015.6
20260906123903 66 81 2.0 5.0 0.00 0.00 0.00 1015.6
20260906123424 66 57 2.0 5.0 0.00 0.00 0.00 1014.9
20260906122905 66 41 3.0 5.0 0.00 0.00 0.00 1014.9
20260906122403 66 60 2.0 5.0 0.00 0.00 0.00 1014.9
20260906121903 66 26 2.0 4.0 0.00 0.00 0.00 1014.9
20260906121403 65 40 2.0 6.0 0.00 0.00 0.00 1014.9
20260906120903 65 18 1.0 6.0 0.00 0.00 0.00 1014.9
20260906120403 65 6 1.0 6.0 0.00 0.00 0.00 1014.3
20260906115903 65 352 0.0 6.0 0.00 0.00 0.00 1014.6
20260906115403 65 25 1.0 6.0 0.00 0.00 0.00 1014.3
20260906114903 65 39 1.0 3.0 0.00 0.00 0.00 1014.3
20260906114404 65 5 0.0 6.0 0.00 0.00 0.00 1014.3
20260906113903 65 32 1.0 6.0 0.00 0.00 0.00 1014.3
20260906113403 65 9 0.0 6.0 0.00 0.00 0.00 1014.3
20260906112903 65 34 0.0 6.0 0.00 0.00 0.00 1014.3
20260906112403 65 27 1.0 5.0 0.00 0.00 0.00 1014.6
20260906111945 65 55 2.0 4.0 0.00 0.00 0.00 1014.6
20260906111403 65 353 1.0 6.0 0.00 0.00 0.00 1014.3
20260906110903 66 352 0.0 6.0 0.00 0.00 0.00 1013.9
20260906110403 66 34 2.0 6.0 0.00 0.00 0.00 1014.3
20260906105903 66 35 1.0 6.0 0.00 0.00 0.00 1014.3
20260906105403 65 32 0.0 6.0 0.00 0.00 0.00 1014.3
20260906104902 65 40 0.0 6.0 0.00 0.00 0.00 1014.3
20260906104403 65 345 0.0 3.0 0.00 0.00 0.00 1014.3
20260906103903 66 39 1.0 6.0 0.00 0.00 0.00 1014.3
20260906103403 66 55 2.0 6.0 0.00 0.00 0.00 1013.9
20260906102925 66 359 1.0 6.0 0.00 0.00 0.00 1013.9
20260906102403 66 54 2.0 5.0 0.00 0.00 0.00 1014.3
20260906100903 66 57 3.0 8.0 0.00 0.00 0.00 1014.3
20260906100403 66 63 2.0 8.0 0.00 0.00 0.00 1014.3
20260906095903 66 52 2.0 7.0 0.00 0.00 0.00 1013.9
20260906095403 66 22 2.0 7.0 0.00 0.00 0.00 1013.9
20260906094903 66 51 2.0 6.0 0.00 0.00 0.00 1013.6
20260906094403 66 56 2.0 6.0 0.00 0.00 0.00 1013.6
20260906093903 66 40 3.0 6.0 0.00 0.00 0.00 1013.9
20260906093403 66 54 1.0 5.0 0.00 0.00 0.00 1014.3
20260906092903 66 40 2.0 6.0 0.00 0.00 0.00 1013.9
20260906092404 66 7 0.0 6.0 0.00 0.00 0.00 1014.3
20260906090902 66 317 0.0 6.0 0.00 0.00 0.00 1014.3
20260906090403 66 48 1.0 4.0 0.00 0.00 0.00 1014.3
20260906085903 66 59 1.0 5.0 0.00 0.00 0.00 1013.9
20260906085403 66 53 2.0 5.0 0.00 0.00 0.00 1013.9
20260906084902 66 20 1.0 4.0 0.00 0.00 0.00 1013.2
20260906084403 67 41 0.0 5.0 0.00 0.00 0.00 1013.6
20260906083902 67 50 1.0 5.0 0.00 0.00 0.00 1013.6
20260906083403 67 29 1.0 5.0 0.00 0.00 0.00 1013.9
20260906082903 67 52 2.0 5.0 0.00 0.00 0.00 1013.6
20260906082403 67 50 2.0 5.0 0.00 0.00 0.00 1013.2
20260906081903 67 57 3.0 5.0 0.00 0.00 0.00 1013.9
20260906080403 67 34 1.0 8.0 0.00 0.00 0.00 1014.3
20260906075903 67 50 2.0 8.0 0.00 0.00 0.00 1013.2
20260906075424 67 49 2.0 8.0 0.00 0.00 0.00 1013.6
20260906074903 67 62 3.0 8.0 0.00 0.00 0.00 1014.3
20260906074424 67 74 2.0 8.0 0.00 0.00 0.00 1013.6
20260906073903 68 52 3.0 8.0 0.00 0.00 0.00 1013.9
20260906073403 67 34 3.0 7.0 0.00 0.00 0.00 1013.6
20260906071903 68 55 2.0 5.0 0.00 0.00 0.00 1013.9
20260906071403 68 53 2.0 5.0 0.00 0.00 0.00 1013.9
20260906070903 68 38 1.0 5.0 0.00 0.00 0.00 1014.3
20260906070403 68 79 2.0 6.0 0.00 0.00 0.00 1014.3
20260906065903 68 5 1.0 6.0 0.00 0.00 0.00 1013.6
20260906065402 68 63 2.0 5.0 0.00 0.00 0.00 1013.2
20260906064903 68 49 3.0 6.0 0.00 0.00 0.00 1013.6
20260906064403 68 43 2.0 6.0 0.00 0.00 0.00 1013.6
20260906063903 68 57 2.0 6.0 0.00 0.00 0.00 1013.9
20260906063424 69 52 2.0 6.0 0.00 0.00 0.00 1013.9
20260906062903 69 68 2.0 8.0 0.00 0.00 0.00 1014.3
20260906062424 69 42 3.0 8.0 0.00 0.00 0.00 1014.3
20260906061924 69 14 2.0 7.0 0.00 0.00 0.00 1013.9
20260906061424 69 62 3.0 6.0 0.00 0.00 0.00 1013.9
20260906060903 69 65 2.0 5.0 0.00 0.00 0.00 1013.6
20260906060402 69 48 1.0 6.0 0.00 0.00 0.00 1014.3
20260906055903 69 22 2.0 6.0 0.00 0.00 0.00 1013.6
20260906055423 69 16 2.0 7.0 0.00 0.00 0.00 1013.9
20260906054924 69 37 2.0 7.0 0.00 0.00 0.00 1013.2
20260906054402 69 42 3.0 6.0 0.00 0.00 0.00 1013.6
20260906053903 69 72 2.0 6.0 0.00 0.00 0.00 1013.9
20260906053403 69 68 2.0 5.0 0.00 0.00 0.00 1013.6
20260906052904 70 68 2.0 5.0 0.00 0.00 0.00 1013.9
20260906052402 70 79 1.0 3.0 0.00 0.00 0.00 1013.2
20260906051903 70 65 1.0 5.0 0.00 0.00 0.00 1012.9
20260906051403 70 77 3.0 6.0 0.00 0.00 0.00 1013.2
20260906050924 70 57 2.0 6.0 0.00 0.00 0.00 1013.6
20260906050403 70 53 3.0 6.0 0.00 0.00 0.00 1013.2
20260906045903 70 62 1.0 6.0 0.00 0.00 0.00 1012.9
20260906044403 70 43 2.0 7.0 0.00 0.00 0.00 1012.9
20260906043902 71 49 4.0 7.0 0.00 0.00 0.00 1012.9
20260906043424 71 29 1.0 5.0 0.00 0.00 0.00 1012.6
20260906042903 71 42 2.0 5.0 0.00 0.00 0.00 1012.6
20260906042403 71 23 1.0 5.0 0.00 0.00 0.00 1012.9
20260906041903 71 6 2.0 5.0 0.00 0.00 0.00 1012.9
20260906041424 72 17 1.0 4.0 0.00 0.00 0.00 1013.2
20260906040924 72 23 0.0 6.0 0.00 0.00 0.00 1012.6
20260906040403 72 72 2.0 6.0 0.00 0.00 0.00 1012.6
20260906035924 72 63 2.0 6.0 0.00 0.00 0.00 1012.6
20260906035425 72 54 3.0 9.0 0.00 0.00 0.00 1012.9
20260906034924 72 73 2.0 9.0 0.00 0.00 0.00 1012.9
20260906034424 72 60 2.0 9.0 0.00 0.00 0.00 1012.6
20260906033903 73 34 3.0 5.0 0.00 0.00 0.00 1013.2
20260906033403 73 92 0.0 6.0 0.00 0.00 0.00 1012.6
20260906032903 73 81 2.0 7.0 0.00 0.00 0.00 1013.2
20260906032403 73 59 4.0 10.0 0.00 0.00 0.00 1013.2
20260906031924 73 55 3.0 10.0 0.00 0.00 0.00 1013.6
20260906031403 73 40 2.0 9.0 0.00 0.00 0.00 1013.2
20260906030903 74 53 3.0 9.0 0.00 0.00 0.00 1013.2
20260906030403 74 29 3.0 7.0 0.00 0.00 0.00 1013.2
20260906025903 74 46 2.0 7.0 0.00 0.00 0.00 1012.9
20260906025403 74 38 1.0 7.0 0.00 0.00 0.00 1012.9
20260906024903 74 54 3.0 7.0 0.00 0.00 0.00 1012.9
20260906024404 74 46 3.0 9.0 0.00 0.00 0.00 1012.9
20260906023924 74 43 4.0 9.0 0.00 0.00 0.00 1013.2
20260906023403 74 34 2.0 9.0 0.00 0.00 0.00 1012.9
20260906022924 74 67 1.0 7.0 0.00 0.00 0.00 1012.9
20260906022403 74 34 1.0 7.0 0.00 0.00 0.00 1013.2
20260906021902 74 39 2.0 7.0 0.00 0.00 0.00 1013.6
20260906021403 74 31 2.0 7.0 0.00 0.00 0.00 1013.2
20260906020903 74 23 2.0 6.0 0.00 0.00 0.00 1013.2
20260906020403 74 37 1.0 6.0 0.00 0.00 0.00 1013.6
20260906015903 74 9 0.0 6.0 0.00 0.00 0.00 1012.9
20260906015403 74 36 0.0 6.0 0.00 0.00 0.00 1013.2
20260906014903 74 34 0.0 6.0 0.00 0.00 0.00 1013.2
20260906014403 74 73 0.0 6.0 0.00 0.00 0.00 1012.9
20260906013903 75 54 0.0 6.0 0.00 0.00 0.00 1013.2
20260906013403 75 349 1.0 6.0 0.00 0.00 0.00 1012.9
20260906012902 75 59 0.0 3.0 0.00 0.00 0.00 1012.9
20260906012403 75 40 1.0 5.0 0.00 0.00 0.00 1012.2
20260906011902 75 62 1.0 5.0 0.00 0.00 0.00 1012.6
20260906011424 75 44 1.0 3.0 0.00 0.00 0.00 1012.2
20260906010903 75 21 0.0 4.0 0.00 0.00 0.00 1012.6
20260906010402 75 64 2.0 4.0 0.00 0.00 0.00 1012.9
20260906005903 75 69 2.0 4.0 0.00 0.00 0.00 1012.6
20260906005402 75 71 0.0 4.0 0.00 0.00 0.00 1012.6
20260906004903 75 64 1.0 3.0 0.00 0.00 0.00 1012.2
20260906004424 75 87 1.0 5.0 0.00 0.00 0.00 1012.2
20260906003924 76 356 0.0 6.0 0.00 0.00 0.00 1012.2
20260906003424 76 36 0.0 6.0 0.00 0.00 0.00 1012.2
20260906002904 76 67 1.0 6.0 0.00 0.00 0.00 1012.2
20260906002403 76 59 3.0 6.0 0.00 0.00 0.00 1011.9
20260906001903 76 17 1.0 6.0 0.00 0.00 0.00 1012.2
20260906001403 76 55 3.0 10.0 0.00 0.00 0.00 1011.9
20260906000903 77 70 2.0 10.0 0.00 0.00 0.00 1012.2
20260906000403 77 35 2.0 6.0 0.00 0.00 0.00 1012.2
20260905235923 77 56 1.0 6.0 0.00 0.00 0.00 1011.9
20260905235403 77 62 0.0 6.0 0.00 0.00 0.00 1012.2
20260905234903 77 337 0.0 6.0 0.00 0.00 0.00 1012.9
20260905234424 76 93 1.0 6.0 0.00 0.00 0.00 1011.9
20260905233902 76 225 0.0 6.0 0.00 0.00 0.00 1012.2
20260905233404 76 293 0.0 6.0 0.00 0.00 0.00 1011.9
20260905232903 77 65 0.0 6.0 0.00 0.00 0.00 1011.5
20260905232403 77 55 1.0 6.0 0.00 0.00 0.00 1011.9
20260905231903 77 56 0.0 6.0 0.00 0.00 0.00 1012.2
20260905231403 77 345 0.0 6.0 0.00 0.00 0.00 1011.9
20260905230903 77 35 0.0 6.0 0.00 0.00 0.00 1011.9
20260905230425 77 2 0.0 6.0 0.00 0.00 0.00 1012.2
20260905225903 77 337 0.0 6.0 0.00 0.00 0.00 1011.5
20260905225403 77 81 0.0 7.0 0.00 0.00 0.00 1011.5
20260905224924 77 335 0.0 7.0 0.00 0.00 0.00 1011.9
20260905224403 79 287 3.0 6.0 0.00 0.00 0.00 1011.9
20260905223903 80 87 1.0 4.0 0.00 0.00 0.00 1011.5
20260905223403 80 332 0.0 3.0 0.00 0.00 0.00 1011.5
20260905222903 81 48 0.0 3.0 0.00 0.00 0.00 1011.5
20260905222403 81 66 2.0 3.0 0.00 0.00 0.00 1011.5
20260905221924 81 50 1.0 3.0 0.00 0.00 0.00 1011.5
20260905221403 81 75 2.0 5.0 0.00 0.00 0.00 1011.5
20260905220902 81 47 0.0 5.0 0.00 0.00 0.00 1011.9
20260905220403 81 73 1.0 2.0 0.00 0.00 0.00 1011.5
20260905215903 81 96 0.0 5.0 0.00 0.00 0.00 1010.9
20260905215403 82 81 2.0 5.0 0.00 0.00 0.00 1011.5
20260905214903 83 77 2.0 5.0 0.00 0.00 0.00 1011.5
20260905214403 84 344 1.0 5.0 0.00 0.00 0.00 1011.5
20260905213903 84 69 0.0 5.0 0.00 0.00 0.00 1011.2
20260905213402 82 79 2.0 5.0 0.00 0.00 0.00 1011.2
20260905212402 81 57 2.0 4.0 0.00 0.00 0.00 1011.2
20260905211903 81 60 0.0 5.0 0.00 0.00 0.00 1011.2
20260905211403 81 59 1.0 5.0 0.00 0.00 0.00 1011.9
20260905210903 81 23 1.0 4.0 0.00 0.00 0.00 1011.2
20260905210403 82 356 1.0 6.0 0.00 0.00 0.00 1011.9
20260905205903 83 70 0.0 6.0 0.00 0.00 0.00 1011.9
20260905205402 84 40 1.0 4.0 0.00 0.00 0.00 1011.9
20260905204903 84 313 2.0 4.0 0.00 0.00 0.00 1011.9
20260905204424 83 313 1.0 6.0 0.00 0.00 0.00 1011.9
20260905203903 82 309 1.0 6.0 0.00 0.00 0.00 1011.9
20260905203403 81 326 0.0 6.0 0.00 0.00 0.00 1011.9
20260905202903 80 285 0.0 6.0 0.00 0.00 0.00 1011.5
20260905202403 81 330 0.0 5.0 0.00 0.00 0.00 1012.2
20260905201902 81 321 2.0 5.0 0.00 0.00 0.00 1011.9
20260905201403 81 322 1.0 6.0 0.00 0.00 0.00 1011.9
20260905200903 80 278 0.0 6.0 0.00 0.00 0.00 1012.2
20260905200403 80 300 0.0 4.0 0.00 0.00 0.00 1012.2
20260905195903 80 314 1.0 8.0 0.00 0.00 0.00 1012.2
20260905195403 82 306 4.0 8.0 0.00 0.00 0.00 1012.6
20260905194924 83 327 1.0 7.0 0.00 0.00 0.00 1011.9
20260905194403 84 318 3.0 9.0 0.00 0.00 0.00 1012.2
20260905193903 84 304 5.0 9.0 0.00 0.00 0.00 1012.6
20260905193403 83 333 1.0 7.0 0.00 0.00 0.00 1012.6
20260905192924 83 282 4.0 7.0 0.00 0.00 0.00 1012.6
20260905192403 83 167 0.0 7.0 0.00 0.00 0.00 1012.6
20260905191903 83 291 1.0 7.0 0.00 0.00 0.00 1012.6
20260905191403 82 272 3.0 7.0 0.00 0.00 0.00 1012.6
20260905190902 82 294 2.0 7.0 0.00 0.00 0.00 1012.6
20260905190403 82 6 2.0 7.0 0.00 0.00 0.00 1012.6
20260905185903 82 325 2.0 7.0 0.00 0.00 0.00 1012.6
20260905185403 82 270 1.0 7.0 0.00 0.00 0.00 1012.9
20260905184904 82 307 3.0 6.0 0.00 0.00 0.00 1013.2
20260905184403 82 358 1.0 5.0 0.00 0.00 0.00 1013.2
20260905183903 82 9 2.0 5.0 0.00 0.00 0.00 1012.9
20260905183424 81 277 2.0 3.0 0.00 0.00 0.00 1013.2
20260905182903 81 47 0.0 4.0 0.00 0.00 0.00 1013.6
20260905182403 81 296 2.0 6.0 0.00 0.00 0.00 1013.9
20260905181903 81 312 2.0 7.0 0.00 0.00 0.00 1013.2
20260905181403 80 55 2.0 7.0 0.00 0.00 0.00 1013.2
20260905180903 80 38 2.0 4.0 0.00 0.00 0.00 1013.2
20260905180403 79 42 2.0 4.0 0.00 0.00 0.00 1013.2
20260905175903 79 321 2.0 4.0 0.00 0.00 0.00 1012.9
20260905175403 80 321 2.0 4.0 0.00 0.00 0.00 1013.2
20260905174904 80 311 2.0 4.0 0.00 0.00 0.00 1012.9
20260905174402 80 48 0.0 5.0 0.00 0.00 0.00 1012.9
20260905173903 79 6 0.0 5.0 0.00 0.00 0.00 1013.2
20260905173404 79 313 2.0 5.0 0.00 0.00 0.00 1012.9
20260905172904 79 297 1.0 3.0 0.00 0.00 0.00 1013.6
20260905172403 80 338 0.0 5.0 0.00 0.00 0.00 1013.6
20260905171903 80 13 2.0 5.0 0.00 0.00 0.00 1013.6
20260905171424 80 27 1.0 3.0 0.00 0.00 0.00 1013.2
20260905170903 80 353 1.0 6.0 0.00 0.00 0.00 1013.6
20260905170403 80 309 2.0 6.0 0.00 0.00 0.00 1013.2
20260905164903 80 36 2.0 7.0 0.00 0.00 0.00 1012.9
20260905164404 80 273 1.0 7.0 0.00 0.00 0.00 1013.2
20260905163903 80 265 2.0 5.0 0.00 0.00 0.00 1013.6